Change the Weather History Date:

Monday, August 6, 2012

  Actual Average Record
Temperature  
Mean Temperature 75 °F -  
Max Temperature 94 °F 92 °F 108 °F (1990)
Min Temperature 55 °F 58 °F 53 °F (1950)
Degree Days  
Heating Degree Days 0    
Month to date heating degree days 0  
Since 1 June heating degree days 18  
Cooling Degree Days 10    
Month to date cooling degree days 61  
Year to date cooling degree days 717  
Since 1 June cooling degree days 577  
Growing Degree Days 24 (Base 50)    
Moisture  
Dew Point 51 °F    
Average Humidity 53    
Maximum Humidity 86    
Minimum Humidity 19    
Precipitation  
Precipitation 0.00 in 0.00 in 0.00 in (2015)
Month to date precipitation T 0.00  
Year to date precipitation 9.89 11.90  
Since 1 July precipitation 0.03 T  
Sea Level Pressure  
Sea Level Pressure 30.03 in    
Wind  
Wind Speed 5 mph (SSW)    
Max Wind Speed 10 mph    
Max Gust Speed 13 mph    
Visibility 10 miles    
Events      
T = Trace of Precipitation, MM = Missing Value Source: NWS Daily Summary

Daily Weather History Graph

Daily Weather History Graph

Search for Another Location

Airport or City:

Trip Planner

Search our weather history database for the weather conditions in past years. The results will help you decide how hot, cold, wet, or windy it might be!

Date:

Astronomy

Aug. 06, 2012 Rise Set
Actual Time 6:12 AM PDT 8:10 PM PDT
Civil Twilight 5:43 AM PDT 8:39 PM PDT
Nautical Twilight 5:08 AM PDT 9:14 PM PDT
Astronomical Twilight 4:30 AM PDT 9:52 PM PDT
Moon 10:26 PM PDT (8/6) 11:02 AM PDT (8/6)
Length of Visible Light 14h 55m
Length of Day
13h 57m
Waning Gibbous, 77% of the Moon is Illuminated
Aug 6
Waning Gibbous
Aug 9
Last Quarter
Aug 17
New
Aug 24
First Quarter
Aug 31
Full

Hourly Weather History & Observations

Time (PDT) Temp. Dew Point Humidity Pressure Visibility Wind Dir Wind Speed Gust Speed Precip Events Conditions
12:53 AM 60.1 °F 50.0 °F 69% 30.03 in 10.0 mi SE 4.6 mph - N/A   Clear
1:53 AM 59.0 °F 50.0 °F 72% 30.03 in 10.0 mi South 4.6 mph - N/A   Clear
2:53 AM 57.9 °F 51.1 °F 78% 30.03 in 10.0 mi South 4.6 mph - N/A   Clear
3:53 AM 57.0 °F 51.1 °F 81% 30.04 in 10.0 mi South 4.6 mph - N/A   Clear
4:53 AM 55.4 °F 51.8 °F 88% 30.04 in 10.0 mi SSE 3.5 mph - N/A   Clear
5:53 AM 55.9 °F 51.1 °F 84% 30.05 in 10.0 mi SSE 4.6 mph - N/A   Clear
6:53 AM 55.9 °F 52.0 °F 87% 30.07 in 10.0 mi SSE 3.5 mph - N/A   Clear
7:14 AM 57.2 °F 51.8 °F 82% 30.07 in 10.0 mi Variable 3.5 mph - N/A   Partly Cloudy
7:53 AM 59.0 °F 53.1 °F 81% 30.07 in 10.0 mi South 6.9 mph - N/A   Clear
8:53 AM 63.0 °F 54.0 °F 72% 30.08 in 10.0 mi SSW 6.9 mph - N/A   Clear
9:53 AM 68.0 °F 54.0 °F 61% 30.08 in 10.0 mi South 5.8 mph - N/A   Clear
10:53 AM 73.9 °F 54.0 °F 50% 30.08 in 10.0 mi SSW 4.6 mph - N/A   Clear
11:53 AM 79.0 °F 53.1 °F 40% 30.08 in 10.0 mi Variable 3.5 mph - N/A   Clear
12:53 PM 84.0 °F 50.0 °F 31% 30.06 in 10.0 mi West 4.6 mph - N/A   Clear
1:53 PM 87.1 °F 48.9 °F 27% 30.04 in 10.0 mi South 3.5 mph - N/A   Clear
2:53 PM 91.0 °F 48.9 °F 23% 30.03 in 10.0 mi SW 4.6 mph - N/A   Clear
3:53 PM 93.0 °F 46.0 °F 20% 30.01 in 10.0 mi SW 8.1 mph - N/A   Clear
4:53 PM 93.9 °F 44.1 °F 18% 29.99 in 10.0 mi Variable 3.5 mph - N/A   Clear
5:53 PM 93.0 °F 48.9 °F 22% 29.98 in 10.0 mi WSW 8.1 mph - N/A   Clear
6:53 PM 90.0 °F 50.0 °F 25% 29.96 in 10.0 mi SW 11.5 mph - N/A   Clear
7:53 PM 84.0 °F 51.1 °F 32% 29.97 in 10.0 mi SSW 4.6 mph - N/A   Clear
8:53 PM 77.0 °F 52.0 °F 42% 29.98 in 10.0 mi SSW 8.1 mph - N/A   Clear
9:53 PM 72.0 °F 52.0 °F 49% 29.98 in 10.0 mi SSW 10.4 mph - N/A   Clear
10:53 PM 69.1 °F 52.0 °F 54% 29.98 in 10.0 mi SW 5.8 mph - N/A   Clear
11:53 PM 66.9 °F 50.0 °F 54% 29.98 in 10.0 mi Calm Calm - N/A   Clear